This is the latest recevied weather packets stored in our database for station/object KD8BMB. If no packets are shown the sender has not sent any weather packets the latest 10 day(s).
| Time | Temp. | Humidity | Pressure | Rain* | Wind** | Luminosity | Snow |
|---|---|---|---|---|---|---|---|
| 1777471782 | 7.78° C | 90% | 1013.3 hPa | 0 mm | - | 183 W/m² | - |
| 1777471479 | 7.78° C | 91% | 1013.6 hPa | 0 mm | - | 183 W/m² | - |
| 1777471176 | 7.78° C | 91% | 1013.6 hPa | 0 mm | - | 157 W/m² | - |
| 1777470873 | 7.78° C | 91% | 1013.6 hPa | 0 mm | - | 140 W/m² | - |
| 1777470570 | 7.78° C | 92% | 1013.5 hPa | 0 mm | - | 138 W/m² | - |
| 1777470266 | 7.78° C | 91% | 1013.3 hPa | 0 mm | - | 157 W/m² | - |
| 1777469962 | 7.78° C | 91% | 1013.4 hPa | 0 mm | - | 173 W/m² | - |
| 1777469658 | 7.78° C | 91% | 1013.5 hPa | 0 mm | - | 175 W/m² | - |
| 1777469353 | 7.78° C | 92% | 1013.6 hPa | 0 mm | - | 182 W/m² | - |
| 1777469050 | 7.22° C | 92% | 1013.8 hPa | 0 mm | - | 219 W/m² | - |
| 1777468744 | 7.78° C | 94% | 1013.7 hPa | 0 mm | - | 222 W/m² | - |
| 1777468441 | 7.22° C | 95% | 1013.4 hPa | 0 mm | - | 187 W/m² | - |
| 1777468136 | 7.22° C | 96% | 1013.6 hPa | 0 mm | - | 168 W/m² | - |
| 1777467833 | 7.22° C | 96% | 1013.8 hPa | 0 mm | - | 134 W/m² | - |
| 1777467529 | 7.22° C | 96% | 1013.8 hPa | 0 mm | - | 154 W/m² | - |
| 1777467224 | 7.22° C | 97% | 1014.1 hPa | 0 mm | - | 159 W/m² | - |
| 1777466921 | 7.22° C | 96% | 1014.1 hPa | 0 mm | - | 147 W/m² | - |
| 1777466619 | 7.22° C | 96% | 1014.2 hPa | 0 mm | - | 167 W/m² | - |
| 1777466315 | 7.22° C | 97% | 1014 hPa | 0 mm | - | 113 W/m² | - |
| 1777466012 | 6.67° C | 97% | 1014.5 hPa | 0 mm | - | 157 W/m² | - |
| 1777465708 | 6.67° C | 97% | 1014.2 hPa | 0 mm | - | 137 W/m² | - |
| 1777465404 | 6.67° C | 97% | 1014.2 hPa | 0 mm | - | 102 W/m² | - |
| 1777465102 | 7.22° C | 98% | 1014.2 hPa | 0 mm | - | 60 W/m² | - |
| 1777464798 | 6.67° C | 98% | 1014.2 hPa | 0 mm | - | 44 W/m² | - |
| 1777464494 | 7.22° C | 98% | 1014.3 hPa | 0 mm | - | 34 W/m² | - |
* Rain latest hour (hover to see other rain measurements)
** Current wind speed in m/s (hover to see current wind gust speed)